Regional Weather Roundup
Issued by NWS

Home | Current Version | Previous Version | Graphics & Text | Print | Product List | Glossary Off
Versions: 1 2 3 4 5 6 7 8 9 10 11 12 13 14 15 16 17 18 19 20 21 22 23 24 25 26 27 28 29 30 31 32 33 34 35 36 37 38 39 40 41 42 43 44 45 46 47 48 49 50

000
ASUS43 KIND 240209
RWRIN

WEATHER ROUNDUP FOR INDIANA
NATIONAL WEATHER SERVICE INDIANAPOLIS IN
900 PM EST FRI FEB 23 2018

NOTE: "FAIR" INDICATES FEW OR NO CLOUDS BELOW 12,000 FEET WITH NO
SIGNIFICANT WEATHER AND/OR OBSTRUCTIONS TO VISIBILITY.

* - STATION DOES NOT REPORT WEATHER SUCH AS PRECIPITATION OR FOG.

+ - STATION NOT QUALITY CONTROLLED BY THE NATIONAL WEATHER SERVICE.
    USE DATA WITH CAUTION...ESPECIALLY DEWPOINT AND RELATIVE
    HUMIDITY OBSERVATIONS.

INZ001>003-010>013-019-020-240300-
NORTHWEST INDIANA

CITY           SKY/WX    TMP DP  RH WIND       PRES   REMARKS
GARY /AIRPORT/ CLOUDY    39  34  81 W7        30.27S WCI  34
LA PORTE +     CLOUDY    37  35  89 NW7       30.26R WCI  32
MICHIGAN CITY+ CLOUDY    36  34  93 W3        30.27S
MONTICELLO +   CLOUDY    39  37  95 NW10      30.26R WCI  32
RENSSELAER +   CLOUDY    37  34  87 NW8       30.25F WCI  31
VALPARAISO     CLOUDY    39  34  82 W8        30.26S WCI  33

$$

LMZ046-743>745-240300-
SOUTHERN LAKE MICHIGAN

STATION/POSITION TIME  TEMP    WIND        PRES    WAVE
                       AIR SEA DIR/SP/G            HT
                 (UTC) (F)     (DEG/KT/KT) (MB)    (FT)
BURNS HARBOR     0200   36     270/  6/ 13 1025.4
MICHIGAN CITY    0140   35     250/  7/  8   N/A

$$

INZ004-005-014>016-021>024-240300-
NORTH CENTRAL INDIANA

CITY           SKY/WX    TMP DP  RH WIND       PRES   REMARKS
ELKHART        CLOUDY    39  36  87 NW6       30.25R WCI  35
GOSHEN         CLOUDY    41  38  89 W7        30.24R
LOGANSPORT +   CLOUDY    39  37  93 NW7       30.26S WCI  34
PERU/GRISSOM   CLOUDY    42  42 100 NW8       30.24S
ROCHESTER +    CLOUDY    43  41  93 W6        30.25S
SOUTH BEND     CLOUDY    37  34  89 NW9       30.25S WCI  30
WARSAW +       CLOUDY    39  37  93 N8        30.24R WCI  34

$$

INZ006>009-017-018-025>027-240300-
NORTHEAST INDIANA

CITY           SKY/WX    TMP DP  RH WIND       PRES   REMARKS
AUBURN +       CLOUDY    43  41  93 W8        30.23S
FORT WAYNE     CLOUDY    44  41  89 W10       30.24S
HUNTINGTON +   CLOUDY    42  40  95 W5        30.23S
KENDALLVILLE + CLOUDY    41  40  95 W8        30.23R

$$

INZ028-029-035-036-043>045-051>053-240300-
WEST CENTRAL INDIANA

CITY           SKY/WX    TMP DP  RH WIND       PRES   REMARKS
CRAWFORDSVL +  CLOUDY    42  42 100 W6          N/A
GREENCASTLE +  CLOUDY    45  41  87 NW5       30.27R
LAFAYETTE      CLOUDY    41  40  96 NW6       30.27R
TERRE HAUTE    CLOUDY    46  43  89 NW7       30.26S

$$

INZ030>032-037>040-046>048-054>057-064-065-240300-
CENTRAL INDIANA

CITY           SKY/WX    TMP DP  RH WIND       PRES   REMARKS
COLUMBUS       PTCLDY    50 N/A N/A W5        30.24R
INDIANAPOLIS   CLOUDY    47  44  90 NW8       30.25R
-EAGLE CREEK   CLOUDY    47  42  83 NW8       30.25R
KOKOMO +       CLOUDY    43  41  93 NW9       30.25F
MARION +       CLOUDY    43  42  96 CALM      30.24F FOG
MT COMFORT *+  CLOUDY    46  46 100 W6        30.25R
SHELBYVILLE    CLOUDY    51  46  83 NW7       30.24R
ZIONSVILLE +   CLOUDY    44  42  95 W6        30.26R

$$

INZ033-034-041-042-049-050-058-059-240300-
EAST CENTRAL INDIANA

CITY           SKY/WX    TMP DP  RH WIND       PRES   REMARKS
MUNCIE         CLOUDY    48  44  86 NW9       30.22F
RICHMOND +     CLOUDY    50  50 100 NW5       30.22R

$$

INZ060-061-067>069-081>083-085>088-240300-
SOUTHWEST INDIANA

CITY           SKY/WX    TMP DP  RH WIND       PRES   REMARKS
EVANSVILLE     FAIR      50  48  93 NW5       30.25S
HUNTINGBURG +  FAIR      50  49  96 N10       30.24S
WASHINGTON +   MOCLDY    49  47  93 CALM      30.24F

$$

INZ062-063-066-070>080-084-089>092-240300-
SOUTH CENTRAL AND SOUTHEAST INDIANA

CITY           SKY/WX    TMP DP  RH WIND       PRES   REMARKS
BATESVILLE +   CLEAR     52  52 100 MISG      30.22S
BEDFORD +      FAIR      50  46  87 NW3       30.24R
BLOOMINGTON    CLOUDY    51  48  89 NW5       30.24S
FRENCH LICK *+ CLOUDY    50 N/A N/A NW6       30.24R
MADISON *+     FAIR      54  50  87 CALM      30.24R
NORTH VERNON + FAIR      50  48  93 W3        30.22F
SEYMOUR +      FAIR      52  50  93 NW9       30.23S

$$





USA.gov is the U.S. government's official web portal to all federal, state and local government web resources and services.